User: anonymous   Login
Location: Unspecified
(0.0000°N, 0.0000°E)
Time: 19:37:58
(UTC+00:00)
Language:

FO-29 - Orbit

View from above orbital plane
View from above orbital plane
View from above satellite
View from above satellite

Ground track
Ground track

The orbit data is extracted from the following two-line orbital elements,

1 24278U 96046B   19077.93404877 +.00000006 +00000-0 +38713-4 0  9996
2 24278 098.5231 243.8548 0351301 117.9527 245.7638 13.53089819115146
Epoch (UTC): 18 March 2019 22:25:01
Eccentricity: 0.0351301
inclination: 98.5231°
perigee height: 799 km
apogee height: 1322 km
right ascension of ascending node: 243.8548°
argument of perigee: 117.9527°
revolutions per day: 13.53089819
mean anomaly at epoch: 245.7638°
orbit number at epoch: 11514

The dashed part of the orbit path shows where the satellite is in the earth's shadow,  

DLR